Location: Barruelo
(41.2448°N, 3.8231°W)
Time: 04:13:17
(UTC+00:00)

Cosmos 2058 Rocket - Pass Details

Date: 11 December 2025
Orbit: 603 x 633 km, 82.5° (Epoch: 13 January)

Event Time Altitude Azimuth Distance (km) Brightness Sun altitude
Rises 17:41:38 0° 156° (SSE) 2,909 6.5 -10.2°
Reaches altitude 10° 17:44:10 10° 143° (SE) 2,009 5.5 -10.6°
Maximum altitude 17:47:47 25° 89° (E) 1,284 4.1 -11.2°
Enters shadow 17:50:59 12° 38° (NE) 1,875 5.0 -11.8°
